Temperature
18 18 18 17 17 17 17 17 17 17 17 17 17 17 17 17 17 18 17 17 17 17 17 17 17 18 18 18 18 18 18 18 17 17 17 17 17 17 17 17 17 16 16
18 17 17 17 17 17 17 17 17 17 17 17 17 17 17 17 17 17 17 17 17 17 17 17 17 17 17 18 18 18 18 18 18 17 17 17 17 17 17 17 17 17 16
17 17 17 17 17 16 16 16 16 16 16 16 16 17 17 17 17 17 17 17 17 17 17 17 17 17 17 17 17 18 18 18 18 17 17 17 17 17 17 17 17 17 17
17 17 17 17 16 16 16 16 16 16 16 16 16 16 16 16 17 17 17 17 17 17 17 17 17 17 17 17 17 17 17 17 17 17 17 17 17 17 17 17 17 17 17
17 17 17 16 16 16 16 16 16 16 16 16 16 16 16 16 16 16 16 16 16 16 16 17 16 16 16 17 17 17 17 17 17 17 17 17 17 17 17 17 17 17 17
17 16 16 16 16 16 15 15 15 15 15 15 15 16 16 16 16 16 16 16 16 16 16 16 16 16 16 16 16 17 17 17 17 17 17 17 17 17 17 17 17 17 17
16 16 16 16 15 15 15 15 15 15 15 15 15 15 16 16 16 16 16 16 16 16 16 16 16 16 16 16 16 16 16 17 17 17 17 17 17 17 17 17 17 17 17
16 15 15 15 15 15 15 14 14 14 14 14 14 14 14 15 16 16 16 16 16 16 16 16 16 16 16 16 16 16 16 16 16 17 17 17 17 17 17 17 17 17 17
15 15 15 15 15 14 14 14 14 14 14 14 13 13 13 14 14 15 15 15 15 15 15 16 16 16 16 16 16 16 16 16 16 16 16 16 16 17 17 17 17 17 17
15 15 15 14 14 14 14 13 13 13 13 13 13 13 13 13 13 14 14 15 15 15 15 15 15 15 15 15 16 16 16 16 16 16 16 16 16 16 16 17 17 17 17
15 14 14 14 14 13 13 13 13 13 13 12 12 13 13 13 13 13 13 14 14 14 15 15 15 15 15 15 15 15 16 16 16 16 16 16 16 16 16 16 16 16 17
14 14 14 13 13 13 13 12 12 12 12 12 12 12 12 12 12 12 12 13 13 14 14 14 14 15 15 15 15 15 15 15 15 16 16 16 16 16 16 16 16 16 16
14 13 13 13 13 12 12 12 12 12 11 11 11 11 11 11 12 12 12 12 12 13 13 14 14 14 14 14 15 15 15 15 15 15 15 15 16 16 16 16 16 16 16
13 13 13 12 12 12 12 12 11 11 11 11 11 11 11 11 11 11 11 11 11 12 12 13 14 14 14 14 14 14 14 15 15 15 15 15 15 15 16 16 16 16 16
13 12 12 12 12 12 11 11 11 11 11 11 11 11 11 11 11 11 11 11 11 11 11 12 13 13 13 13 13 14 14 14 14 14 15 15 15 15 15 15 16 16 16
12 12 12 12 12 11 11 11 11 11 11 11 11 11 11 11 11 11 11 11 11 11 11 11 12 12 13 13 13 13 13 14 14 14 14 14 15 15 15 15 15 16 16
12 12 12 12 11 11 11 11 11 11 10 10 10 10 10 10 10 10 10 10 10 10 10 11 11 12 12 12 13 13 13 13 14 14 14 14 14 15 15 15 15 15 15
12 12 12 11 11 11 11 11 11 10 10 10 10 10 10 10 10 10 10 10 10 10 10 10 11 11 11 12 12 12 13 13 13 13 13 14 14 14 14 15 15 15 15
12 12 12 11 11 11 11 11 10 10 10 10 10 10 10 10 10 10 10 10 10 10 10 10 10 11 11 11 11 12 12 12 13 13 13 14 14 14 14 14 15 15 15
12 12 12 11 11 11 11 11 10 10 10 10 10 10 10 10 10 10 9 9 9 9 9 10 10 10 10 11 11 11 12 12 12 13 13 13 13 14 14 14 14 15 15
12 12 12 11 11 11 11 10 10 10 10 10 10 10 10 10 9 9 9 9 9 9 9 9 9 9 10 10 10 11 11 11 12 12 12 13 13 13 14 14 14 14 15
12 12 12 11 11 11 11 10 10 10 10 10 10 10 10 10 9 9 9 9 9 9 9 9 9 9 9 10 10 10 10 10 11 12 12 12 12 13 13 13 14 14 14
12 12 12 12 11 11 11 10 10 10 10 10 9 9 9 9 9 9 9 9 8 8 8 8 8 9 9 9 9 9 10 10 10 11 11 11 12 12 13 13 13 14 14
13 12 12 12 11 11 11 10 10 10 10 10 9 9 9 9 9 9 8 8 9 9 9 8 8 9 9 9 9 9 9 9 10 10 10 11 12 12 12 13 13 13 14
13 12 12 12 12 11 11 11 10 10 10 10 9 9 9 9 9 8 8 8 8 9 8 8 8 8 8 9 9 9 9 9 9 10 10 10 11 11 12 12 13 13 13
13 12 12 12 12 11 11 11 10 10 10 10 10 9 9 9 9 8 8 8 8 8 8 8 8 8 8 8 8 8 9 9 9 9 10 10 11 11 11 12 12 12 13
Wind_Speed
3 3 3 3 2 3 3 3 3 3 3 3 4 5 5 5 6 6 7 12 17 21 22 21 22 22 22 22 22 21 21 20 19 19 19 18 18 17 17 16 16 15 15
5 4 3 2 2 2 2 2 2 2 2 2 3 4 5 5 5 7 8 11 17 21 22 22 23 23 23 23 23 23 22 22 21 21 20 20 19 19 18 17 17 17 16
6 5 3 2 1 1 1 1 0 0 0 1 2 3 3 4 5 7 9 11 15 20 23 23 24 24 24 24 24 24 24 24 23 23 23 22 21 21 20 19 18 18 18
8 6 3 2 1 2 1 1 1 1 1 1 2 3 2 3 5 8 9 11 13 15 20 24 25 25 26 25 25 25 25 25 25 25 24 24 23 23 22 21 20 20 19
7 6 3 3 4 3 2 1 2 1 1 2 3 3 3 3 4 6 6 9 12 14 16 20 24 26 27 26 26 26 26 27 27 26 26 26 25 24 24 23 22 22 21
7 7 4 4 4 3 2 2 1 1 1 2 3 4 4 4 3 4 5 6 8 12 14 16 17 21 26 27 27 27 27 27 28 28 28 27 27 26 26 25 24 23 23
6 6 3 3 3 3 2 1 1 2 2 2 3 4 5 4 3 3 2 2 4 8 10 12 12 13 15 23 27 28 29 29 29 29 30 29 29 28 28 27 26 25 24
5 4 4 3 3 3 3 3 2 1 2 2 1 2 4 5 4 3 2 1 3 3 5 8 10 12 14 14 18 24 27 28 29 30 30 30 30 30 29 29 28 27 26
3 4 4 4 3 3 2 1 2 2 1 2 1 2 1 2 4 4 3 3 4 3 3 5 7 11 13 14 15 19 24 25 27 28 29 30 31 31 31 30 29 29 28
1 2 4 4 3 3 2 1 2 1 2 1 2 0 2 3 2 4 4 4 5 4 5 4 5 7 11 12 14 17 21 24 25 27 28 30 31 32 32 32 31 30 29
3 3 4 4 3 2 2 1 1 0 1 2 1 1 1 1 2 2 4 5 5 4 4 4 4 6 9 10 12 16 19 22 24 26 27 28 30 31 32 33 32 31 30
3 3 5 4 3 1 1 0 0 1 1 1 2 2 2 1 2 2 3 4 5 5 5 4 3 4 7 8 11 14 17 20 22 24 26 28 29 30 32 33 33 33 32
1 2 2 2 1 0 1 0 0 1 2 2 3 3 3 3 3 3 3 4 4 4 4 4 4 4 5 5 8 12 13 17 19 21 22 25 28 29 30 32 33 34 33
2 1 2 1 0 1 1 0 1 2 2 2 4 3 3 4 3 3 3 3 4 4 3 5 4 4 5 6 8 9 9 13 15 17 20 21 24 26 28 30 32 33 33
3 3 1 0 1 2 2 1 2 3 3 3 4 4 3 4 3 4 3 4 3 4 4 5 4 4 5 7 8 8 8 10 13 15 17 19 21 23 26 28 30 31 32
2 2 1 2 2 3 3 2 3 4 3 4 4 4 4 4 4 4 3 3 4 4 5 4 4 5 5 6 9 9 10 12 12 14 16 18 20 22 24 26 28 30 32
3 3 3 3 4 4 4 3 4 4 4 5 4 4 5 5 4 4 3 3 3 3 5 5 4 4 4 6 6 8 10 10 11 14 17 19 20 22 23 24 26 28 30
4 4 4 4 4 4 4 4 5 5 5 6 6 5 6 5 5 5 4 5 4 5 5 6 4 4 5 6 6 6 6 9 10 13 16 18 19 21 23 23 25 27 29
4 4 4 5 5 6 6 6 6 6 6 6 6 6 6 5 6 5 6 6 5 6 4 5 5 4 4 4 5 5 5 4 7 10 13 16 18 19 21 22 24 26 29
5 5 5 6 6 6 6 6 5 5 5 5 6 6 6 7 7 7 6 7 6 6 5 4 5 4 4 4 3 4 5 4 5 6 7 9 12 16 18 20 23 25 27
5 5 5 5 5 5 5 5 5 5 6 6 6 7 7 9 11 9 7 7 6 5 5 5 5 4 4 4 4 3 4 5 5 3 3 4 4 6 9 15 19 22 25
5 4 5 5 5 5 7 8 7 6 6 6 7 7 8 10 11 11 12 11 9 8 7 6 5 6 7 6 5 4 4 3 4 3 2 4 3 5 5 8 13 17 21
5 5 5 6 7 8 11 11 11 7 7 7 7 7 8 9 9 7 9 11 10 11 11 8 8 9 8 7 5 5 5 5 5 4 2 4 3 5 5 8 13 16 18
5 5 6 7 7 9 12 12 12 8 7 8 8 8 8 9 10 9 8 8 8 9 9 8 8 10 10 9 8 7 7 6 5 4 3 4 4 4 4 4 10 14 17
5 6 6 7 7 9 12 12 11 5 6 8 8 8 8 8 12 12 8 8 9 9 11 12 11 11 13 13 10 5 5 4 5 5 4 4 3 3 3 3 5 10 14
6 6 7 7 8 9 12 13 11 5 7 7 7 7 10 10 11 10 6 7 9 9 8 8 8 9 8 9 11 9 8 7 5 4 5 5 3 2 2 2 2 3 6
Wind_Direction
135 135 127 131 150 172 183 182 198 215 230 246 249 237 230 224 225 224 232 226 215 208 204 200 201 200 197 195 195 194 193 193 191 188 186 185 183 180 178 177 174 172 170
136 127 114 111 132 190 192 192 200 204 228 241 262 253 243 234 225 223 228 226 222 216 212 209 207 206 204 202 201 200 199 198 196 194 193 192 189 188 186 185 183 181 179
127 122 117 119 147 174 162 160 120 85 280 288 278 272 258 247 230 230 231 229 229 224 220 217 214 212 210 208 207 206 205 203 200 198 198 196 194 193 192 191 190 188 186
129 123 123 119 108 89 93 109 74 58 354 315 291 283 275 268 252 242 236 234 231 229 228 226 223 219 217 215 213 211 210 208 205 203 202 201 199 198 197 196 195 194 192
130 126 119 107 92 77 56 56 69 88 350 317 294 283 281 269 256 255 243 237 232 229 229 232 230 227 225 223 220 217 214 213 210 208 206 206 205 203 201 201 199 198 197
128 119 109 96 92 80 53 38 39 21 314 305 312 315 297 281 270 257 250 244 237 234 231 232 234 236 233 230 227 223 220 217 215 213 211 210 209 207 205 204 203 202 202
122 116 109 99 93 86 72 47 42 8 344 3 15 335 320 308 295 274 265 263 255 249 238 233 230 231 237 236 233 229 225 222 219 217 215 213 212 210 208 206 206 205 205
125 129 128 126 109 89 55 41 54 36 343 24 70 9 340 336 334 327 322 305 294 276 256 244 235 231 234 234 234 232 229 227 224 221 219 217 215 213 211 209 208 208 207
140 146 150 138 126 115 100 61 81 106 348 330 99 141 105 291 312 322 333 342 329 305 284 269 253 241 236 232 231 233 233 232 229 227 224 221 218 216 214 212 211 210 210
93 135 140 133 125 120 111 80 103 121 126 312 325 275 192 196 236 310 320 328 328 316 305 294 276 261 248 237 233 233 234 233 232 231 230 226 222 220 217 214 214 214 213
46 85 110 117 117 117 117 94 64 57 165 196 239 280 307 281 187 201 292 318 326 313 306 295 285 279 269 252 241 237 234 233 232 232 231 230 226 223 220 218 218 218 217
26 59 92 99 111 121 153 219 262 281 254 237 232 226 217 237 253 224 257 291 300 298 300 293 291 284 283 268 255 248 240 236 234 235 234 232 229 226 223 221 221 221 220
46 50 80 95 103 211 232 206 279 292 281 272 260 247 231 224 217 209 228 268 283 291 298 295 283 294 294 287 272 262 250 242 238 237 238 237 233 230 227 224 224 223 222
170 155 117 111 78 302 297 261 273 276 271 276 278 269 255 252 231 216 215 237 290 298 297 284 292 279 289 289 280 274 263 250 242 241 240 239 236 232 229 226 224 223 223
181 165 158 206 292 288 278 269 262 272 279 273 275 276 266 263 255 241 224 205 215 272 285 275 282 289 294 288 284 279 270 263 254 249 245 242 238 234 229 225 224 223 221
185 188 226 254 270 275 272 261 262 265 269 275 267 272 274 268 270 263 249 235 210 219 257 265 263 277 289 293 287 278 272 271 264 257 250 246 242 238 233 229 225 222 220
203 213 233 244 254 261 264 257 259 263 264 274 278 272 273 271 270 272 267 257 244 221 253 274 265 278 282 289 294 286 278 269 264 259 253 249 245 241 236 233 227 223 220
214 221 229 239 250 253 250 245 257 262 256 262 269 271 274 278 275 272 266 261 256 241 235 267 280 282 276 279 280 282 279 275 264 263 255 251 248 244 240 235 230 224 221
222 232 231 239 248 252 251 249 246 252 252 254 257 258 264 269 272 271 267 262 260 266 240 246 269 270 275 283 293 291 287 283 278 271 263 255 250 246 242 236 231 225 221
222 236 239 239 242 247 250 253 248 244 249 255 255 255 259 257 258 261 266 260 257 261 259 255 264 270 271 278 282 287 297 290 287 284 274 268 260 253 246 239 232 225 220
228 231 238 247 251 250 245 236 235 240 245 257 264 264 265 268 266 262 264 255 251 249 253 256 263 272 274 279 273 268 276 285 284 263 280 279 267 256 250 243 235 225 218
232 233 239 245 253 252 246 234 233 241 246 251 262 269 274 274 275 274 275 270 253 242 241 246 253 254 260 257 260 262 267 281 289 278 268 280 267 261 248 241 234 226 220
226 234 242 245 251 256 257 254 248 234 239 246 253 264 277 280 282 275 277 281 277 263 244 234 241 247 250 245 246 260 251 242 250 259 262 275 273 269 262 247 231 223 219
225 235 243 247 251 258 257 255 253 239 239 248 250 253 260 273 277 268 268 272 268 267 259 246 236 245 247 243 234 240 246 253 260 259 221 254 268 266 274 259 236 224 219
234 239 245 249 252 262 261 258 249 231 241 253 256 257 256 265 273 274 265 265 271 274 271 260 250 253 257 256 245 238 241 241 263 265 219 223 250 263 264 258 248 227 216
236 246 253 252 249 257 262 260 245 220 240 255 262 261 261 261 269 274 256 253 264 269 272 280 278 278 271 267 256 229 224 227 237 259 230 206 223 231 272 267 246 229 217
Height
1559 1560 1560 1561 1561 1562 1562 1563 1563 1564 1564 1564 1565 1565 1566 1567 1567 1568 1569 1570 1572 1573 1574 1576 1577 1578 1580 1581 1583 1584 1586 1587 1589 1591 1592 1594 1595 1597 1599 1600 1602 1603 1604
1558 1558 1559 1559 1560 1561 1561 1561 1561 1561 1561 1562 1562 1562 1563 1564 1565 1565 1567 1568 1569 1570 1571 1573 1574 1576 1577 1579 1580 1582 1584 1585 1587 1589 1591 1592 1594 1596 1598 1599 1601 1602 1604
1557 1557 1557 1558 1558 1559 1559 1559 1559 1559 1559 1559 1559 1560 1560 1561 1561 1562 1563 1565 1565 1566 1568 1569 1570 1572 1574 1575 1577 1579 1581 1583 1585 1587 1589 1590 1592 1594 1596 1598 1600 1601 1603
1556 1556 1556 1557 1557 1557 1557 1557 1557 1556 1556 1556 1556 1557 1557 1557 1557 1558 1559 1560 1561 1562 1564 1565 1567 1568 1570 1571 1573 1575 1577 1579 1582 1584 1586 1588 1590 1592 1594 1596 1598 1600 1601
1555 1555 1555 1556 1556 1556 1556 1555 1555 1555 1554 1554 1554 1554 1553 1554 1554 1554 1555 1556 1557 1558 1559 1561 1562 1564 1565 1567 1569 1571 1573 1576 1578 1580 1582 1585 1587 1589 1591 1593 1596 1598 1600
1554 1554 1554 1554 1554 1554 1554 1554 1553 1553 1553 1552 1551 1551 1550 1550 1550 1551 1551 1552 1553 1554 1555 1556 1557 1559 1560 1562 1564 1566 1568 1571 1573 1576 1578 1581 1583 1586 1588 1590 1593 1595 1597
1553 1553 1553 1553 1553 1553 1552 1552 1551 1551 1551 1550 1549 1548 1548 1548 1547 1547 1548 1548 1549 1550 1551 1552 1553 1554 1555 1557 1559 1561 1563 1565 1568 1571 1574 1576 1579 1582 1584 1587 1589 1592 1594
1552 1552 1552 1551 1551 1551 1550 1550 1549 1549 1549 1548 1548 1547 1546 1546 1545 1545 1545 1545 1546 1546 1547 1547 1548 1549 1550 1552 1553 1555 1557 1560 1562 1565 1568 1571 1574 1577 1580 1583 1585 1588 1590
1550 1550 1550 1550 1549 1549 1548 1548 1547 1547 1547 1547 1547 1546 1545 1543 1543 1543 1542 1543 1543 1543 1543 1544 1544 1544 1545 1546 1548 1549 1551 1554 1556 1559 1562 1565 1568 1571 1575 1578 1581 1583 1586
1549 1548 1548 1548 1547 1547 1546 1546 1545 1544 1544 1544 1544 1544 1544 1543 1543 1541 1540 1541 1541 1540 1540 1540 1540 1541 1541 1541 1542 1544 1546 1547 1550 1552 1555 1558 1562 1565 1569 1572 1575 1578 1581
1547 1546 1546 1546 1545 1545 1544 1543 1542 1542 1541 1541 1541 1541 1541 1541 1540 1540 1537 1537 1537 1538 1537 1537 1536 1537 1537 1537 1537 1538 1540 1542 1543 1546 1548 1551 1555 1558 1562 1565 1569 1572 1575
1545 1544 1544 1543 1543 1542 1541 1540 1539 1539 1538 1538 1538 1537 1537 1537 1537 1537 1535 1534 1533 1533 1534 1534 1534 1533 1533 1533 1533 1533 1534 1535 1537 1539 1542 1544 1547 1551 1555 1558 1562 1565 1569
1542 1542 1542 1541 1540 1539 1538 1537 1536 1536 1535 1535 1534 1534 1534 1534 1534 1534 1533 1531 1530 1529 1529 1530 1530 1530 1529 1529 1528 1528 1529 1530 1531 1532 1535 1537 1540 1543 1547 1550 1554 1558 1562
1540 1540 1539 1538 1538 1537 1535 1534 1533 1533 1532 1531 1531 1531 1531 1530 1530 1530 1530 1529 1526 1525 1525 1525 1526 1526 1525 1525 1524 1524 1524 1524 1525 1526 1528 1530 1533 1535 1539 1542 1546 1550 1554
1538 1537 1536 1535 1534 1533 1532 1531 1530 1530 1529 1528 1528 1527 1527 1527 1526 1526 1526 1525 1525 1522 1520 1520 1521 1521 1521 1520 1520 1519 1519 1519 1519 1520 1521 1523 1525 1528 1531 1534 1538 1542 1546
1535 1534 1533 1532 1531 1530 1529 1528 1527 1527 1526 1525 1524 1524 1523 1523 1522 1522 1521 1521 1520 1519 1516 1515 1516 1516 1516 1515 1515 1515 1514 1514 1514 1514 1515 1516 1518 1520 1523 1526 1529 1533 1538
1533 1532 1531 1529 1528 1527 1526 1525 1524 1524 1523 1522 1521 1520 1519 1519 1518 1517 1517 1516 1515 1514 1512 1510 1511 1511 1510 1510 1510 1510 1509 1509 1509 1509 1509 1510 1511 1513 1515 1517 1520 1524 1529
1530 1529 1528 1527 1526 1525 1523 1522 1521 1520 1519 1519 1518 1517 1516 1515 1513 1512 1512 1511 1510 1509 1508 1506 1505 1505 1505 1505 1504 1504 1504 1503 1503 1503 1504 1504 1504 1505 1507 1510 1512 1516 1520
1527 1526 1525 1524 1523 1521 1520 1519 1518 1517 1516 1515 1514 1513 1511 1510 1509 1508 1506 1505 1505 1504 1503 1501 1500 1500 1499 1500 1499 1498 1498 1498 1497 1498 1497 1497 1498 1498 1500 1502 1505 1508 1512
1524 1523 1522 1520 1519 1518 1517 1516 1514 1513 1512 1511 1510 1509 1507 1505 1504 1502 1501 1500 1499 1498 1498 1496 1495 1494 1494 1494 1494 1493 1492 1492 1492 1492 1492 1491 1491 1492 1493 1494 1497 1500 1503
1520 1519 1518 1517 1515 1514 1513 1512 1511 1509 1508 1507 1505 1504 1502 1500 1498 1497 1496 1495 1494 1493 1492 1491 1490 1489 1488 1488 1488 1488 1487 1486 1486 1486 1485 1485 1485 1485 1485 1487 1489 1491 1495
1517 1516 1514 1513 1511 1510 1509 1507 1506 1505 1503 1502 1500 1499 1497 1495 1493 1492 1491 1490 1489 1488 1487 1486 1485 1484 1483 1483 1483 1483 1482 1481 1480 1482 1480 1480 1480 1479 1480 1481 1482 1485 1488
1513 1512 1510 1509 1507 1506 1504 1503 1502 1500 1499 1497 1495 1493 1492 1490 1488 1486 1485 1484 1483 1483 1482 1481 1479 1478 1478 1478 1478 1477 1477 1476 1476 1476 1476 1474 1474 1474 1474 1475 1476 1478 1481
1509 1508 1506 1504 1503 1501 1500 1499 1497 1496 1494 1492 1491 1489 1487 1485 1483 1482 1480 1478 1477 1476 1476 1475 1474 1473 1472 1472 1472 1472 1471 1471 1470 1471 1471 1469 1469 1468 1469 1469 1470 1472 1474
1505 1503 1502 1500 1498 1497 1496 1494 1493 1491 1489 1487 1486 1484 1482 1480 1478 1477 1475 1473 1471 1470 1470 1469 1468 1467 1466 1466 1466 1466 1465 1465 1464 1465 1466 1465 1464 1464 1463 1463 1464 1466 1468
1501 1499 1497 1496 1494 1492 1491 1490 1488 1486 1484 1483 1481 1479 1477 1475 1473 1471 1469 1467 1465 1464 1463 1462 1461 1460 1459 1459 1459 1459 1459 1460 1459 1459 1460 1460 1460 1460 1459 1458 1459 1461 1462